Location: Ponte Samoggia
(44.5667°N, 11.1333°E)
Time: 23:04:59
(UTC+00:00)

Cosmos 1408 - Pass Details

Date: 26 May 2022
Orbit: 447 x 484 km, 82.6° (Epoch: 29 June)

Event Time Altitude Azimuth Distance (km) Brightness Sun altitude
Exits shadow 02:17:04 - 165° (SSE) 2,320 5.7 -12.0°
Reaches altitude 10° 02:18:45 10° 157° (SSE) 1,662 5.0 -11.8°
Maximum altitude 02:22:02 33° 92° (E) 831 4.2 -11.4°
Drops below altitude 10° 02:25:20 10° 27° (NNE) 1,664 6.6 -11.0°
Sets 02:27:33 0° 18° (NNE) 2,542 7.4 -10.7°
